AirNav   Everest Fuels
 
 1096 users online  

KNGU Norfolk Naval Station (Chambers Field)
Norfolk, Virginia, USA

GOING TO NORFOLK?


FAA INFORMATION EFFECTIVE 17 JUNE 2021

Location

FAA Identifier: NGU
Lat/Long: 36-56-14.8838N 076-17-21.4006W
36-56.248063N 076-17.356677W
36.9374677,-76.2892779
(estimated)
Elevation: 14.8 ft. / 4.5 m (surveyed)
Variation: 10W (1990)
Time zone: UTC -4 (UTC -5 during Standard Time)
Zip code: 23503

Airport Operations

Airport use: Private use. Permission required prior to landing
Activation date: 04/1943
Control tower: yes
ARTCC: WASHINGTON CENTER
FSS: LEESBURG FLIGHT SERVICE STATION
NOTAMs facility: NGU (NOTAM-D service available)
Attendance: CONTINUOUS
CLSD 0400Z FOURTH THU NOV - 1200Z FOURTH FRI NOV, CLSD 1900Z 24 DEC - 1200Z 26 DEC, CLSD 1900Z 31 DEC - 1200Z 2 JAN.
Segmented circle: no
Lights: AVBL ONLY DURING HRS OF OPERATION.
Beacon: white-white-green (lighted military airport)
Operates sunset to sunrise.

Airport Communications

ATIS: 118.425 342.0
CHAMBERS GROUND: 121.8 298.95 ;NAVY NORFOLK HELIN 370.85
CHAMBERS TOWER: 124.3 126.375 ;NAVY NORFOLK HELIN 290.5 ;NAVY NORFOLK HELIN 379.15
NORFOLK APPROACH: 118.9 ;010-310
CLEARANCE DELIVERY: 120.7 339.8
AMC/ATOC: 130.65 349.5
BASE OPS: 134.1 268.8
EMERG: 121.5 243.0
PMSV METRO: 271.6
RADAR: 119.2 134.1 263.6 302.0 309.2 346.8
WX ASOS at ORF (5 nm SE): PHONE 757-460-9348
WX AWOS-3PT at PVG (12 nm SW): 118.375 (757-465-2175)
WX ASOS at NTU (14 nm SE): PHONE DSN 433-3619 or 757-433-3619
WX ASOS at PHF (15 nm NW): PHONE 757-874-3682
WX AWOS-3 at CPK (16 nm S): 123.675 (757-204-4290)
  • NOTIFY CHAMBERS OPNS ON FREQ 268.8 ON ALL VIP FLIGHTS 15 MIN PRIOR TO ARRIVAL.
  • ALL RADAR FREQUENCIES ARE ON REQUEST.

Nearby radio navigation aids

VOR radial/distance  VOR name  Freq  Var
ORFr310/5.1NORFOLK VORTAC116.9007W
CCVr220/28.3CAPE CHARLES VORTAC112.2010W
HCMr154/36.7HARCUM VORTAC108.8007W
FKNr078/37.2FRANKLIN VORTAC110.6009W

 
NDB name  Hdg/Dist  Freq  Var  ID
INGLE352/6.132909WOR --- .-.
WAKEFIELD106/34.227411WAKQ .- -.- --.-

Airport Services

Bottled oxygen: NONE
Bulk oxygen: HIGH/LOW

Runway Information

Runway 10/28

Dimensions: 8370 x 200 ft. / 2551 x 61 m
Surface: asphalt/grooved
Weight bearing capacity: 
PCN 56 /R/B/W/T
Runway edge lights: high intensity
RUNWAY 10  RUNWAY 28
Latitude: 36-56.247967N36-56.248162N
Longitude: 076-18.215905W076-16.497447W
Elevation: 13.2 ft.12.5 ft.
Traffic pattern: leftright
Runway heading: 100 magnetic, 090 true280 magnetic, 270 true
Displaced threshold: 299 ft.995 ft.
Declared distances: TORA:8370 LDA:8071TORA:8370 LDA:7375
Visual slope indicator: 4-light PAPI on right (3.00 degrees glide path)4-light PAPI on right (3.00 degrees glide path)
Approach lights: ALSF2: standard 2,400 foot high intensity approach lighting system with centerline sequenced flashers (category II or III)
OLS RYS 10 & 28.
SSALS: simplified short approach lighting system
Runway end identifier lights: yesyes
Centerline lights: yesyes
Touchdown point: yes, lightedyes, lighted
Instrument approach: ILS/DME

Airport Ownership and Management from official FAA records

Ownership: U.S. Navy
Owner: U.S. NAVY
OCEANOGRAPHIC OFC-CODE 3142
WASHINGTON, DC 20373
Manager: COMMANDING OFFICER
NAVAL AIR STATION
NORFOLK, VA 23511

Additional Remarks

E60-28 HOOK E28 (B) (1062').
E60-10 HOOK E28(B) (1500').
AOE.
CAUTION: EXTV FISH SPOTTER ACFT ACT (SENG GENERAL AVIATION ACFT) UPWARDS FR 1500 FT OVER CHESAPEAKE BAY AND ADJ COASTAL WATERS. EXTV VFR TFC OPR W OF CHAMBERS CLASS D AND NORFOLK CLASS C AIRSPACE. BIRD HAZ.
TFC PAT: RGT TFC RWY 28. BASIC F/W/VFR MIN 1000' AND 3 NM. HELIPORT RWY 09/27.
NS ABTMT: NO PRACTICE APCH 0400-1200Z++ MON-SAT; 0400-1800Z++ SUN. OT BY NOTAM. NO COPTER OVFT WILLOUGHBY SPIT EXC VIA PT XRAY (CHAMBERS TACAN R-042/1.5 DME) OR PT YANKEE (CHAMBERS TACAN R-009/1.8 DME) AT 500'.
CSTMS/AG/IMG: CSTMS AVBL WITH 2 HR PN. AG AVBL 1300-2400Z++ MON-FRI. IMG AVBL 1300-2100Z++ MON-FRI. AG/IMG AVBL OT ON OVERTIME BASIS ONLY, PRIOR ARNG RQR.
MISC: RY 10/28 GROOVED.
CAUTION: ARRIVING/DEPARTING TCAS EQUIPPED ACFT SHOULD EXPECT NUMEROUS TCAS ALERTS FROM SHIP TRANSPONDER HARBORED OR TRANSITING INTO/OUT OF THE CHESAPEAKE AND COASTAL WATERS.
ARRIVING/DEPARTING TCAS EQUIPED ACFT SHOULD EXPECT NUMEROUS TCAS ALERTS FROM SHIP TRANSPONDER OR TRANSMITTING INTO/OUT OF THE CHESAPEAKE AND COASTAL WATERS.
CAUTION - DO NOT MISTAKE NORFOLK INTL 5 NM SE FOR CHAMBERS FIELD, WHILE INBD ON TACAN/RNAV RWY 28 APCHS. CHAMBERS FIELD HAS A SINGLE RY; NORFOLK INTL HAS INTERSECTING RYS.
RSTD - PPR FOR NON CHAMBERS FIELD BASED ACFT. DSN 262-3419/3429 C757-322-3419/3429.
AMC/ATOC DSN 564-4735/3922, C757-444-4735/3922. ACFT UTILIZING AMC TRML CTC ATOC/AMC TRML 15 MIN PRIOR ARR WITH LOAD RPT. ACFT OVERSEAS CTC AMC/ATOC VIA FONE PATCH 2 HR PRIOR ARR FOR CSTM. ALL OTHER ACFT, CTC BASE OPS 15 MIN PRIR ARR.
MISC- FLT PLANS FOR NS NORFOLK, CHAMBERS FLD, AND NAS OCEANA SHOULD BE FAXED TO DSN 565-9680, C757-445-9680, OR EMAILED TO KNGU.FLTPLNG.FCT@NAVY.MIL. TO CFM RECEIPT OF FLT PLANS CALL NS NORFOLK, CHAMBERS FLD FLT PLANNING SUPERVISOR AT DSN 262-3419/3429, C757-322-3419/3429.
A-GEAR: AVOID CNTRLINE LGT RWY 10/28 DUR CABLE ENGAGEMENT TO PREVENT TAILHOOK SKIP. DIST RWY 28 MEASURED FR DISPL THLD. E-28(B) IN RAISED POSN AT DEP END OF RWY NMLLY. SHORTFLD GEAR AVBL WITH 20 MIN PN.
JASU:(NC-10C) (NC-8A/A1) (NCPP-105 CTC AIR OPS DUTY OFFICER TO ENSURE AVBL.)
FUEL: NO TRAN COPTER HOT PIT WO PRIOR COORD WITH HOST SQUADRON. J5.
FLUID: ADI SP PRESAIR LHOX LOX.
OIL: UNAVBLE.
TRAN ALERT: LTD TRAN MAINT AVBL WKD ONLY 1200-2000Z++. TRAN MAINT UNAVBL OT. 2 HR PN RQR FOR LOX. LAVATORY SVC UNAVBL FOR C-130 ACFT. POTABLE WATER UNAVBL. NO TRAN WORK/MSN PLANNING/BRIEFING SPACES OR COMSEC STOR FOR DETS.
RSTD: TWY B CLSD S OF TWY F AND TWY D CLSD E OF TWY S UFN.

Instrument Procedures

NOTE: All procedures below are presented as PDF files. If you need a reader for these files, you should download the free Adobe Reader.

NOT FOR NAVIGATION. Please procure official charts for flight.
FAA instrument procedures published for use from 17 June 2021 at 0901Z to 15 July 2021 at 0900Z.

 
STARs - Standard Terminal Arrivals
DRONE TWO   2 pages: [1] [2] (299KB)
TERKS TWO **CHANGED**   download (184KB)
 
IAPs - Instrument Approach Procedures
ILS OR LOC/DME RWY 10 **CHANGED**   download (260KB)
RNAV (GPS) RWY 10   download (159KB)
RNAV (GPS) RWY 28   download (158KB)
HI-TACAN RWY 10   download (149KB)
HI-TACAN RWY 28   download (156KB)
TACAN RWY 10   download (195KB)
TACAN RWY 28   download (146KB)
Radar Approach Procedures available   download (181KB)
 
CHAMBERS ONE (OBSTACLE)   2 pages: [1] [2] (234KB)
NOTE: Special Take-Off Minimums/Departure Procedures apply   download (379KB)

Other nearby airports with instrument procedures:

KORF - Norfolk International Airport (5 nm SE)
KLFI - Langley Air Force Base (9 nm N)
KPVG - Hampton Roads Executive Airport (12 nm SW)
KNTU - Oceana Naval Air Station (Apollo Soucek Field) (14 nm SE)
KPHF - Newport News/Williamsburg International Airport (15 nm NW)
KCPK - Chesapeake Regional Airport (16 nm S)
KFAF - Felker Army Airfield (19 nm NW)
 
Loc | Ops | Rwys | IFR | FBO | Links
Com | Nav | Svcs | Stats | Notes
Area around KNGU (Norfolk Naval Station (Chambers Field))
 
Road maps at: MapQuest Bing Google
 
Aerial photo
WARNING: Photo may not be current or correct
Aerial photo of KNGU (Norfolk Naval Station (Chambers Field))
Photo by David Newcomer
Photo taken 10-Sep-2019
looking southeast from 5,000'.

Do you have a better or more recent aerial photo of Norfolk Naval Station (Chambers Field) that you would like to share? If so, please send us your photo.

 
Sectional chart

 
Airport diagram
Diagram of KNGU (Norfolk Naval Station (Chambers Field))
Download PDF
of official airport diagram from the FAA

 
Airport distance calculator
Flying to Norfolk Naval Station (Chambers Field)? Find the distance to fly.

From to KNGU

Sunrise and sunset
Times for 17-Jun-2021
 Local
(UTC-4)
 Zulu
(UTC)
Morning civil twilight05:1509:15
Sunrise05:4609:46
Sunset20:2600:26
Evening civil twilight20:5700:57

Current date and time
Zulu (UTC)  18-Jun-2021 02:29:49
Local (UTC-4)  17-Jun-2021 22:29:49
 
METAR
KNGU 
2nm SE 
180159Z 00000KT 10SM CLR 19/12 A3008 RMK AO2 SLP185 T01890117 $
KORF 
5nm SE 
180151Z 05005KT 10SM CLR 23/11 A3006 RMK AO2 SLP179 T02280111
KLFI 
9nm NW 
180156Z AUTO 00000KT 10SM CLR 18/13 A3007 RMK AO2 SLP189 T01820131 $
KPVG 
12nm SW 
180156Z AUTO 00000KT 10SM CLR 13/12 A3008 RMK AO2 SLP187 T01280122
KNTU 
15nm SE 
180156Z 16003KT 10SM FEW250 21/14 A3006 RMK AO2 SLP182 T02110139
KPHF 
15nm NW 
180154Z 00000KT 10SM CLR 17/13 A3007 RMK AO2 SLP180 T01670128
KCPK 
16nm S 
180215Z AUTO 00000KT 7SM CLR 17/14 A3008 RMK AO2 T01660143
KNFE 
16nm SE 
180156Z AUTO 00000KT 10SM CLR 16/13 A3007 RMK AO2 SLP185 T01610128
KFAF 
19nm NW 
180156Z AUTO 00000KT 10SM CLR 19/13 A3004 RMK AO2 SLP176 T01900125 $
TAF
KNGU 
2nm SE 
1723/1823 36008KT 9999 FEW040 FEW280 QNH3000INS WND 320V050 BECMG 1801/1803 VRB04KT 9999 SKC QNH3003INS FM181200 19008KT 9999 FEW050 QNH2997INS T17/1809Z T31/1820Z FN00062
KORF 
5nm SE 
171726Z 1718/1818 01009KT P6SM SKC FM180000 VRB05KT P6SM SKC
KLFI 
9nm NW 
172330Z 1723/1823 06010G15KT 9999 FEW100 SCT200 QNH3002INS TX29/1817Z TN17/1808Z LAST NO AMDS AFT 1800 NEXT 1822
KNTU 
15nm SE 
1723/1823 02010G15KT 9999 FEW050 QNH2994INS FM180000 VRB06KT 9999 SKC QNH2998INS T20/1809Z T29/1819Z FN20011
KPHF 
15nm NW 
171726Z 1718/1818 31009KT P6SM SKC FM172000 02007KT P6SM SKC FM172200 VRB05KT P6SM SKC
KFAF 
19nm NW 
171800Z 1718/1824 34009KT 9999 SKC QNH2995INS TX28/1720Z TN16/1808Z
NOTAMs
Click for the latest NOTAMs
NOTAMs are issued by the DoD/FAA and will open in a separate window not controlled by AirNav.

 

 
 

Would you like to see your business listed on this page?

 If your business provides an interesting product or service to pilots, flight crews, aircraft, or users of the Norfolk Naval Station (Chambers Field), you should consider listing it here.  To start the listing process, click on the button below
 
Add a business
 

Other Pages about Norfolk Naval Station (Chambers Field)

Update a link
 
Copyright © AirNav, LLC. All rights reserved. Privacy Policy  Contact